Location: Unspecified
(49.2170°N, 0.0000°E)
Time: 15:31:54
(UTC+00:00)

Vanguard 1 - Pass Details

Date: 21 June 2021
Orbit: 651 x 3832 km, 34.2° (Epoch: 23 July)

Event Time Altitude Azimuth Distance (km) Brightness Sun altitude
Rises 00:30:30 0° 265° (W) 7,803 14.5 -17.1°
Reaches altitude 10° 00:36:38 10° 260° (W) 6,505 14.0 -16.9°
Maximum altitude 00:53:43 41° 200° (SSW) 3,293 12.2 -16.4°
Drops below altitude 10° 01:04:04 10° 135° (SE) 4,003 12.9 -16.0°
Sets 01:06:51 0° 128° (SE) 4,647 13.3 -15.9°
